Regional Weather Roundup
Issued by NWS Melbourne, FL

Current Version | Previous Version | Text Only | Print | Product List | Glossary On
Versions: 1 2 3 4 5 6 7 8 9 10 11 12 13 14 15 16 17 18 19 20 21 22 23 24 25 26 27 28 29 30 31 32 33 34 35 36 37 38 39 40 41 42 43 44 45 46 47 48 49 50
000 ASUS42 KMLB 190012 RWRMLB HOURLY WEATHER ROUNDUP AROUND FLORIDA NATIONAL WEATHER SERVICE OFFICE MELBOURNE FL 800 PM EDT SUN APR 18 2021 CITY SKY/WX TMP DP RH WIND PRES REMARKS MELBOURNE MOCLDY 76 72 87 NW6 29.87R FORT PIERCE PTCLDY 83 64 52 SW3 29.87R ORLANDO INTL CLOUDY 79 68 69 SE9 29.88R THUNDER DAYTONA BEACH TSTM 69 65 86 SE6 29.88S VERO BEACH PTCLDY 85 67 54 SW8 29.87R $$ ...ELSEWHERE ACROSS CENTRAL FLORIDA... CITY SKY/WX TMP DP RH WIND PRES REMARKS PATRICK AFB MOCLDY 75 68 77 N8 29.86R KSC MOCLDY 73 68 83 CALM 29.87R CAPE CANAVERAL MOCLDY 74 69 85 NE5 29.87R HAZE TITUSVILLE PTCLDY 79 70 73 NE6 29.89R SEBASTIAN FAIR 83 66 55 SW8 29.87R ORLANDO EXEC TSTM 74 70 87 NE7 29.88R FOG LEESBURG CLOUDY 72 70 93 S3 29.89R THUNDER SANFORD MOCLDY 71 67 87 E5 29.89R DELAND CLOUDY 70 67 92 SE7 29.89F NEW SMYRNA BCH MOCLDY 72 66 83 E7 29.88R WINTER HAVEN MOCLDY 82 67 60 SW8 29.90R KISSIMMEE CLOUDY 79 71 76 S3 29.90R OKEECHOBEE PTCLDY 81 63 54 W9 29.88R TAMPA CLOUDY 80 71 74 SW12 29.90R $$ ...NORTHERN FLORIDA... CITY SKY/WX TMP DP RH WIND PRES REMARKS PALM COAST RAIN 69 67 92 E8 29.88R ST AUGUSTINE RAIN 70 68 94 CALM 29.89F FOG OCALA TSTM 67 67 100 W10G20 29.93R FOG GAINESVILLE RAIN 68 66 93 S3 29.91R FOG JACKSONVILLE LGT RAIN 65 65 100 W5 29.88R TALLAHASSEE MOCLDY 65 63 93 SW6 29.87S $$ ...ALONG THE SOUTHEAST COAST TO THE KEYS... CITY SKY/WX TMP DP RH WIND PRES REMARKS STUART PTCLDY 82 70 65 S9 29.88R WEST PALM BCH MOCLDY 81 72 74 S13 29.89R MIAMI PTCLDY 83 70 64 S9 29.89R KEY WEST MOCLDY 81 75 82 SE13 29.91R $$ ...MARINE REPORTS... STATION/POSITION TIME TEMP WIND PRES WAVE SWELL AIR SEA DIR/SP/G HT/PER HT/PER (UTC) (F) (DEG/KT/KT) (MB) (FT/S) (FT/S) ST AUGUSTINE FP 0000 68 68 90/ 4/ 5 1012.4R 20NM E CAPE CANA 2350 76 1010.7R 2/11 2/11 120 E NEW SMYRNA 2350 76 170/ 6/ 10 1012.6S 2/11 2/11 TRIDENT PIER 2324 75 76 30/ 6/ 8 1012.3 4NM E PORT CANAV 2356 75 N/A 1/12 6NM NE FPR INLET 2356 77 N/A 4/ 4 SETTLEMENT PT GB 0000 78 160/ 12/ 15 1012.8R $$

USA.gov is the U.S. government's official web portal to all federal, state and local government web resources and services.